星链-4114 (STARLINK-4114 )

导读

STARLINK-4114是美国太空探索技术公司(SpaceX)星链(Starlink)项目的卫星,于2022年7月17日发射升空,属于星链星座组网卫星,承担卫星互联网传输任务。星链项目旨在构建全球覆盖的低轨卫星互联网,该卫星加入星座后,进一步推动了全球网络覆盖能力的扩展。

Basic Information
目录编号:
53162
目录名称:
STARLINK-4114
国际标识:
2022-083AG
轨道中心:
EARTH
卫星名称:
星链-4114
卫星全名:
星链-4114 (STARLINK-4114 )
卫星状态:
在轨 (已飞行1431 天)
发射日期:
2022-07-17 UTC
国别 :
美国 (US)
星等 :
--
Orbit Information
数据来源 国际轨道数据 AOE轨道数据
星历时间 2026-06-17T09:45:48+0800
13小时前
查看轨道信息
2026-06-16T23:00:00+0800
1天前
查看轨道信息
半长轴 6917.872km 6917.881km
偏心率 0.0001209 0.0001135
轨道倾角 53.160° 53.160°
近地点辐角 98.222° 104.666°
升交点赤经 77.886° 79.902°
平近点角 261.891° 338.102°
近地点 538.898km 538.958km
远地点 540.572km 540.53km
周期 95.437分钟 95.438分钟
每日圈数 15.08843 15.0884
Detailed Information
固有亮度:
5
最大亮度:
2.5
卫星平台:
Starlink v1.5
覆盖范围:
全球
运营商:
太空探索技术公司
运营商所在国:
美国
制造商(研发单位):
太空探索技术公司
制造商所在国:
美国
使用方式:
暂无
Satellite Introduction
星链(Starlink)计划是由太空探索技术公司(SpaceX)提出的一个巨型低轨卫星互联网星座项目,计划在2019年至2024年间在太空搭建由约1.2万颗卫星组成的“星链”网络,其中1584颗将部署在地球上空550千米处的近地轨道,并从2020年开始工作。该卫星仍在工作。
2D Orbit Map
3D Orbit Map
Orbit Altitude Analysis Chart
Orbit Inclination Analysis Chart
Orbit Comprehensive Analysis Chart
View Comprehensive Chart